Wind_Speed
22 22 21 21 21 21 21 22 23 25 26 27 28 29 30 30 30 31 30 29 28 28 29 29 29 28 28 28 27 27 28 28 28 28 28 27 27 28 28 29 28 28 28
22 23 23 23 24 23 24 24 25 26 27 28 29 29 30 30 30 30 29 29 29 29 29 29 28 28 28 28 27 28 28 28 28 28 27 26 26 28 28 28 28 28 28
24 24 24 24 24 24 24 25 26 27 28 28 29 30 30 31 30 30 29 28 28 29 29 28 28 28 28 28 29 29 28 28 27 27 27 27 27 27 26 27 28 28 28
25 25 24 25 24 25 25 26 26 27 28 29 30 30 31 30 29 29 29 28 28 28 29 29 28 28 28 28 28 28 28 28 27 27 27 27 27 27 26 26 28 28 27
25 23 24 24 24 24 25 26 27 28 29 30 29 29 30 30 29 28 29 29 29 29 29 29 29 28 28 27 27 28 28 28 27 27 26 26 26 27 27 27 26 27 27
24 23 23 23 24 24 25 26 27 28 29 28 28 29 29 28 29 29 29 30 29 29 29 29 28 27 27 27 27 26 26 26 26 25 25 25 25 26 26 26 25 26 26
23 23 23 23 23 24 25 26 27 28 28 28 28 29 29 29 29 29 29 29 28 28 28 27 27 26 26 26 26 26 26 25 25 24 24 25 24 24 25 25 25 25 25
22 22 21 22 23 24 25 26 27 28 27 28 28 29 29 29 29 28 27 26 26 26 26 25 25 25 25 26 26 26 27 26 26 25 25 25 25 25 24 24 25 24 24
22 21 22 22 23 24 25 26 27 28 27 27 28 28 28 27 27 26 26 25 25 25 25 25 24 24 24 25 25 26 26 26 26 25 25 24 24 25 24 24 24 24 24
21 21 22 23 23 24 25 25 26 27 27 27 27 26 26 26 26 25 25 25 25 24 24 24 24 24 24 24 25 25 25 25 25 24 24 23 23 23 24 24 23 23 23
22 21 22 22 23 23 24 24 25 25 26 26 26 26 26 25 25 25 25 25 24 24 24 24 24 23 23 24 24 24 24 24 23 23 24 23 23 23 23 23 22 22 22
22 22 22 22 22 23 23 23 24 24 25 25 24 24 25 25 25 25 25 24 24 23 24 24 24 24 24 24 24 23 23 23 23 23 23 22 22 22 22 22 21 21 21
22 22 22 23 23 23 23 23 23 23 24 23 23 24 24 24 24 24 23 23 23 23 23 23 23 23 23 23 23 22 21 21 22 22 22 22 21 21 21 20 20 20 21
23 22 22 22 23 23 22 22 22 23 23 22 22 23 23 22 22 22 21 22 22 21 22 21 21 21 22 21 21 21 20 20 20 20 20 20 20 19 19 20 20 20 20
21 20 20 21 22 21 21 21 21 22 22 21 21 22 22 22 21 20 20 20 20 20 19 18 18 19 19 19 19 19 19 18 18 18 17 17 17 17 18 18 18 18 18
20 19 20 20 20 20 20 20 20 21 20 20 21 22 22 21 20 19 19 18 18 18 17 17 17 17 17 17 17 17 17 16 16 15 15 15 15 15 16 16 16 16 16
18 18 18 18 18 19 19 20 19 19 19 20 20 21 20 19 17 17 18 17 17 17 17 16 17 17 16 15 15 14 14 14 13 13 13 13 13 13 13 13 13 14 15
17 17 17 17 18 18 18 17 17 18 19 19 20 20 18 17 16 16 15 15 16 16 16 16 16 15 15 14 14 13 12 11 11 11 12 11 11 11 12 12 12 12 13
16 16 17 16 17 17 17 17 17 18 17 18 18 18 17 16 15 15 15 14 14 14 14 14 14 13 13 13 12 12 10 10 10 10 10 10 10 9 9 10 10 10 10
15 16 16 15 15 14 15 16 16 16 16 16 17 16 15 15 14 14 14 13 13 13 13 14 14 13 12 12 12 10 10 10 10 10 9 9 9 8 8 9 9 10 10
14 13 13 13 13 13 13 14 14 13 14 14 15 15 14 14 14 13 12 12 12 12 13 13 13 12 12 12 12 11 11 11 11 10 9 9 8 9 9 9 8 9 10
12 12 12 12 12 12 12 11 11 11 12 13 14 14 13 13 12 11 11 12 12 12 12 13 13 12 13 12 12 11 11 10 10 10 10 10 9 9 9 9 9 9 9
10 11 11 11 11 10 10 10 10 11 12 12 13 13 12 12 12 12 12 12 12 12 13 13 13 14 13 13 13 12 11 11 10 10 10 10 10 9 9 9 9 9 9
10 10 9 9 9 8 8 9 9 10 11 12 12 12 12 12 12 12 13 13 13 13 13 14 14 14 13 13 13 12 11 11 11 11 10 10 10 10 10 9 10 10 9
8 8 7 7 7 7 7 8 8 9 10 10 11 12 12 12 12 13 13 13 13 14 14 14 14 14 14 14 13 13 12 11 11 12 11 11 11 11 11 11 11 11 12
7 7 7 6 5 6 7 7 8 8 8 10 11 12 12 12 13 13 13 14 14 14 15 15 15 15 16 15 14 13 13 13 13 13 12 12 11 12 11 11 11 11 12
Wind_Direction
283 288 289 291 293 295 297 298 297 297 298 300 301 302 303 302 301 301 299 298 294 291 290 289 287 287 285 283 282 281 281 282 280 279 278 278 276 272 270 271 270 270 272
287 291 290 290 292 294 295 296 297 298 299 300 301 302 304 303 302 302 300 297 294 292 291 289 287 286 285 282 281 281 282 283 282 281 279 278 276 274 273 273 273 271 271
288 289 287 288 291 293 294 295 296 298 300 301 302 302 302 301 301 301 299 296 294 293 292 291 288 287 286 284 282 281 283 284 285 283 281 279 277 275 273 273 273 272 271
286 286 286 288 291 292 293 296 298 300 301 302 302 302 301 302 301 299 299 297 295 293 292 291 289 288 287 286 283 282 284 284 285 284 282 280 277 276 274 274 273 272 271
285 284 284 286 289 291 293 297 299 301 303 302 302 302 302 302 302 300 299 297 295 293 292 289 287 286 287 286 283 283 283 284 285 283 281 279 277 277 275 275 273 272 271
285 284 283 285 287 291 293 296 298 301 303 303 303 303 303 303 304 301 300 298 295 293 292 291 290 288 287 286 285 284 283 283 284 283 281 280 278 277 277 276 273 272 271
285 282 281 284 287 291 294 296 299 302 303 304 304 303 303 304 305 303 301 300 297 295 294 291 291 291 289 287 285 283 283 284 284 283 282 280 278 278 278 278 274 273 271
289 283 282 285 288 290 293 296 300 302 303 303 303 303 302 304 304 303 303 302 302 300 298 295 291 291 290 289 287 285 284 284 283 282 282 280 278 277 277 276 275 273 272
293 289 289 288 288 291 294 297 300 301 302 303 304 305 305 305 305 304 304 305 304 303 301 297 295 294 291 289 287 287 285 283 283 283 282 280 278 275 276 276 274 272 270
292 290 292 291 290 292 295 298 301 301 302 302 304 306 307 308 309 307 307 305 304 303 302 300 298 297 295 292 289 289 286 285 285 284 282 281 279 277 276 275 273 270 267
292 293 294 294 294 294 297 300 303 303 303 304 305 307 309 309 309 308 308 307 305 303 301 300 298 297 295 292 291 289 287 286 286 284 283 280 277 275 274 273 271 268 265
292 292 293 294 296 298 300 302 304 305 305 306 307 309 309 310 310 308 307 306 306 304 303 302 299 299 297 294 292 290 288 286 284 282 281 280 277 275 273 270 267 265 265
290 291 291 292 294 297 300 303 306 308 308 309 309 310 311 312 312 311 309 307 307 305 303 303 302 300 298 296 292 290 289 286 284 282 280 278 276 276 273 269 267 266 265
291 290 291 293 295 298 301 305 308 310 310 311 312 312 312 313 313 312 311 311 310 310 310 308 306 303 300 297 294 291 291 289 286 284 282 279 276 275 273 270 269 268 267
292 292 292 294 297 300 303 305 307 310 311 313 314 315 314 313 314 315 315 316 316 316 315 313 313 311 308 302 298 296 295 292 290 289 285 283 279 277 275 272 270 267 265
294 295 294 294 298 301 304 304 306 311 313 315 316 317 316 314 314 316 317 318 319 319 319 318 318 316 313 309 305 301 298 295 292 289 286 285 282 280 277 273 269 265 263
296 296 294 295 297 301 303 305 306 313 315 318 320 320 320 318 317 316 316 318 320 324 325 322 319 320 319 316 314 307 305 303 299 294 290 287 281 279 279 276 274 269 265
294 295 295 297 299 301 301 306 310 314 317 320 323 324 325 321 317 316 318 321 323 325 326 326 326 327 326 322 319 315 314 310 308 305 299 293 289 284 280 280 278 274 269
293 294 294 296 299 299 304 306 309 313 318 323 327 327 326 325 324 324 324 326 328 329 329 332 333 333 332 328 325 325 325 320 320 319 310 300 294 293 290 288 283 277 268
293 295 295 297 303 304 307 310 310 312 318 325 329 331 330 331 330 329 328 329 330 333 334 335 335 335 335 333 330 330 328 323 324 324 320 311 299 295 296 289 284 280 273
295 297 299 302 305 309 313 315 317 318 320 326 332 336 337 337 336 336 336 335 335 334 336 337 338 337 336 334 333 334 332 329 326 323 318 314 308 299 293 289 286 284 279
296 300 301 300 307 314 318 320 324 327 330 334 338 341 342 345 347 346 345 344 342 341 341 343 342 342 341 340 337 333 328 326 324 322 320 317 315 311 302 293 292 290 284
297 300 305 304 310 317 319 322 329 336 342 346 348 350 351 352 353 353 350 347 345 344 342 342 340 341 342 341 338 335 330 327 325 324 323 322 318 314 310 301 296 293 285
299 304 307 309 314 319 322 326 333 339 345 350 354 355 355 355 355 354 352 351 348 346 345 343 342 341 341 340 339 337 336 332 329 325 321 317 315 311 305 301 295 291 286
300 307 311 310 316 323 330 334 335 338 345 351 355 357 357 357 358 356 354 352 352 350 348 347 346 344 342 340 338 338 335 333 332 330 327 320 313 309 303 300 296 291 288
298 309 313 315 319 330 333 338 339 342 348 353 359 0 358 357 355 354 353 355 354 351 349 347 345 343 341 340 339 336 333 329 327 326 325 323 317 314 310 303 296 294 294
Height
5858 5857 5856 5856 5854 5853 5852 5850 5849 5848 5846 5844 5842 5839 5837 5834 5832 5829 5827 5824 5823 5821 5819 5817 5815 5813 5811 5810 5809 5808 5807 5806 5805 5805 5805 5804 5804 5805 5805 5805 5805 5806 5807
5852 5853 5852 5852 5851 5849 5848 5847 5845 5843 5842 5839 5837 5834 5831 5829 5826 5823 5821 5818 5816 5814 5812 5810 5808 5807 5805 5804 5803 5801 5800 5800 5798 5798 5798 5798 5798 5798 5798 5798 5798 5799 5800
5847 5848 5848 5847 5846 5845 5843 5842 5840 5839 5837 5834 5831 5829 5826 5823 5820 5817 5814 5812 5810 5808 5805 5803 5801 5800 5798 5797 5796 5794 5793 5793 5792 5791 5790 5790 5790 5791 5791 5791 5791 5791 5792
5844 5843 5843 5842 5841 5840 5838 5838 5836 5834 5831 5828 5826 5823 5820 5817 5814 5811 5809 5806 5803 5801 5799 5797 5795 5793 5791 5790 5789 5788 5787 5786 5785 5784 5783 5783 5783 5783 5784 5784 5783 5783 5784
5840 5838 5838 5837 5836 5835 5834 5833 5831 5828 5825 5823 5820 5817 5814 5811 5808 5805 5802 5799 5797 5794 5792 5790 5788 5786 5784 5783 5782 5781 5780 5779 5778 5778 5777 5776 5776 5775 5776 5776 5776 5776 5776
5835 5834 5834 5832 5831 5830 5829 5827 5825 5823 5820 5817 5814 5811 5808 5805 5801 5798 5795 5792 5790 5788 5785 5783 5781 5779 5778 5776 5775 5774 5773 5772 5771 5771 5770 5769 5769 5769 5768 5768 5768 5768 5769
5830 5829 5828 5828 5827 5826 5824 5822 5820 5817 5814 5812 5809 5806 5803 5799 5796 5792 5789 5786 5783 5781 5778 5776 5774 5772 5771 5770 5769 5767 5766 5765 5765 5764 5763 5763 5762 5762 5762 5761 5761 5761 5762
5825 5823 5823 5823 5822 5821 5819 5817 5815 5812 5809 5806 5803 5800 5797 5793 5790 5786 5783 5780 5777 5775 5772 5770 5768 5766 5764 5763 5762 5761 5760 5759 5758 5758 5757 5756 5755 5755 5755 5755 5754 5755 5756
5822 5820 5818 5818 5817 5816 5814 5812 5809 5807 5804 5801 5798 5794 5791 5787 5784 5780 5777 5774 5771 5769 5766 5764 5762 5760 5758 5757 5755 5754 5753 5753 5752 5751 5750 5749 5749 5748 5748 5748 5748 5749 5750
5818 5816 5815 5813 5813 5811 5809 5807 5804 5802 5799 5796 5792 5789 5785 5782 5778 5775 5772 5769 5766 5763 5760 5758 5756 5754 5752 5751 5749 5748 5747 5746 5745 5744 5744 5743 5742 5742 5742 5742 5742 5743 5743
5814 5813 5811 5809 5808 5806 5804 5802 5800 5797 5794 5790 5787 5784 5780 5776 5773 5770 5766 5763 5760 5757 5755 5752 5750 5748 5746 5745 5743 5742 5740 5739 5739 5738 5737 5737 5736 5736 5736 5736 5736 5737 5737
5810 5809 5807 5805 5803 5801 5799 5797 5795 5792 5788 5785 5782 5778 5775 5771 5767 5764 5760 5757 5754 5752 5749 5747 5744 5742 5740 5739 5737 5736 5734 5733 5732 5732 5731 5730 5730 5729 5729 5730 5730 5731 5731
5806 5804 5802 5800 5798 5796 5794 5792 5790 5787 5783 5780 5776 5773 5769 5766 5762 5758 5755 5752 5749 5746 5743 5741 5739 5736 5735 5733 5731 5729 5728 5727 5726 5725 5725 5724 5724 5723 5723 5724 5724 5725 5725
5801 5800 5798 5795 5793 5791 5789 5787 5785 5782 5778 5775 5771 5768 5764 5761 5757 5754 5750 5747 5744 5741 5738 5736 5733 5731 5729 5727 5725 5724 5722 5721 5720 5719 5718 5718 5717 5717 5717 5718 5718 5719 5719
5796 5795 5793 5791 5789 5787 5785 5782 5780 5777 5774 5771 5767 5764 5760 5757 5753 5750 5746 5743 5740 5737 5734 5732 5729 5727 5724 5722 5720 5719 5717 5716 5715 5714 5713 5712 5712 5712 5712 5712 5712 5713 5714
5791 5790 5788 5786 5785 5783 5780 5778 5776 5773 5770 5767 5763 5760 5756 5752 5749 5746 5743 5740 5737 5734 5731 5728 5726 5723 5721 5718 5716 5714 5713 5711 5710 5709 5709 5708 5708 5707 5707 5707 5707 5708 5709
5787 5785 5784 5782 5780 5779 5776 5774 5772 5769 5766 5763 5759 5755 5752 5749 5746 5743 5740 5737 5734 5731 5728 5726 5723 5720 5717 5715 5713 5711 5709 5708 5706 5705 5704 5704 5704 5703 5703 5703 5703 5704 5704
5783 5781 5780 5778 5776 5774 5772 5770 5768 5766 5763 5760 5756 5752 5749 5746 5743 5740 5737 5734 5731 5728 5726 5723 5720 5718 5715 5713 5711 5708 5707 5705 5704 5703 5701 5701 5700 5700 5700 5700 5700 5700 5701
5779 5777 5776 5774 5773 5771 5768 5766 5765 5763 5760 5757 5753 5749 5746 5743 5740 5737 5735 5732 5729 5726 5724 5721 5719 5716 5714 5711 5709 5707 5705 5704 5702 5701 5699 5699 5698 5698 5697 5697 5697 5697 5697
5775 5773 5772 5770 5768 5767 5766 5764 5762 5760 5757 5754 5751 5747 5744 5741 5738 5736 5733 5731 5728 5725 5723 5720 5717 5715 5713 5711 5708 5706 5704 5703 5701 5699 5698 5697 5696 5696 5695 5695 5695 5694 5694
5772 5770 5769 5768 5766 5765 5763 5762 5760 5757 5755 5752 5749 5746 5743 5740 5737 5734 5732 5730 5727 5725 5722 5719 5717 5714 5712 5710 5707 5706 5704 5702 5700 5698 5697 5696 5695 5694 5693 5693 5692 5692 5692
5769 5768 5766 5765 5764 5762 5761 5760 5758 5755 5753 5750 5748 5744 5741 5739 5736 5734 5731 5729 5726 5724 5721 5719 5716 5714 5711 5709 5707 5705 5703 5701 5699 5697 5696 5694 5693 5692 5691 5691 5690 5690 5690
5767 5766 5764 5763 5762 5761 5759 5758 5756 5754 5752 5749 5747 5744 5741 5738 5736 5734 5731 5728 5726 5723 5721 5718 5716 5713 5711 5708 5706 5704 5701 5700 5698 5696 5694 5693 5691 5690 5690 5689 5688 5688 5687
5765 5764 5762 5761 5760 5759 5758 5756 5755 5753 5751 5749 5746 5744 5741 5738 5736 5733 5731 5728 5725 5722 5720 5717 5715 5712 5710 5707 5705 5702 5700 5698 5696 5694 5693 5691 5689 5688 5688 5687 5686 5686 5685
5763 5762 5761 5760 5759 5758 5757 5756 5754 5752 5751 5748 5746 5743 5741 5738 5736 5733 5731 5728 5725 5722 5719 5717 5714 5712 5709 5707 5704 5701 5699 5697 5695 5693 5691 5689 5688 5686 5685 5684 5683 5683 5682
5762 5761 5760 5759 5758 5758 5757 5755 5754 5752 5750 5748 5746 5743 5741 5738 5736 5733 5731 5728 5725 5722 5719 5717 5714 5711 5708 5706 5703 5701 5698 5696 5694 5692 5690 5688 5686 5684 5683 5682 5681 5680 5679